LEMUR-2-BRIDGEMAN

Last updated on Thu Mar 09 2017 00:17:46 GMT+0000 (Coordinated Universal Time)

1 41596U 16019C 17067.10015613 .11365953 12547-4 52873-3 0 9994 2 41596 51.6506 142.3048 0005782 47.1381 316.3232 16.42964006 40875

Satellite not in orbit